Location: Lanoux
(43.1180°N, 1.4255°E)
Time: 15:18:35
(UTC+00:00)

ARIANE 6 FM1 Upper Stage - Pass Details

Date: 15 February 2026
Orbit: 523 x 607 km, 62.0° (Epoch: 6 March)

Event Time Altitude Azimuth Distance (km) Brightness Sun altitude
Rises 19:16:27 0° 324° (NW) 2,658 6.7 -20.9°
Reaches altitude 10° 19:18:40 10° 329° (NNW) 1,767 5.6 -21.3°
Enters shadow 19:21:57 48° 12° (NNE) 692 3.0 -21.9°
